Flag for Chile Weather past 2 weeks in Santiago, Chile

Now
61 °F

Clear.


Feels Like: 61 °F
Forecast: 59 / 86 °F
Wind: 8 mph from South

Location: Pudahuel

Current Time: Dec 29, 2014 at 3:14:25 AM

Latest Report: Dec 29, 2014 at 3:00 AM


Visibility: 10 mi

Pressure: 29.92 "Hg

Humidity: 63%

Dew point: 48 °F

Location of SantiagoLocation

Historic Weather in Santiago — Graph

°F

Santiago temperature yesterday

Maximum temperature yesterday: 88 °F (at 3:00 PM)
Minimum temperature yesterday: 55 °F (at 6:00 AM)
Average temperature yesterday: 71 °F

Past Weeks' High & Low Weather Summary

 TemperatureHumidityPressure
High91 °F (Dec 23, 5:00 PM)88% (Dec 20, 9:00 PM)30.15 "Hg (Dec 20, 9:00 PM)
Low46 °F (Dec 22, 5:00 AM)8% (Dec 22, 3:00 PM)29.80 "Hg (Dec 23, 6:00 PM)
Average66 °F47%29.97 "Hg
* Reported Dec 14 2:00 AM — Dec 29 2:00 AM, Santiago, Weather by CustomWeather, © 2014

Note: Actual official high and low records may vary slightly from our data, if they occured in-between our weather recording intervals... More about our weather records

Advertising

Santiago weather history for previous 24 hours

 ConditionsComfort  
Time TempWeatherWind HumidityBarometerVisibility
2:00 AM
Dec 29
63 °FClear.9 mph56%29.92 "Hg10 mi
1:00 AM64 °FClear.8 mph52%29.92 "Hg10 mi
12:00 AM68 °FPassing clouds.10 mph40%29.92 "HgN/A
11:00 PM
Dec 28
70 °FClear.8 mph35%29.92 "Hg10 mi
10:00 PM72 °FClear.9 mph33%29.92 "Hg10 mi
9:00 PM73 °FClear.17 mph27%29.89 "Hg10 mi
8:00 PM77 °FSunny.21 mph30%29.86 "Hg10 mi
7:00 PM81 °FSunny.21 mph28%29.86 "Hg10 mi
6:00 PM84 °FPassing clouds.22 mph29%29.86 "HgN/A
5:00 PM88 °FSunny.17 mph25%29.86 "Hg10 mi
4:00 PM88 °FSunny.17 mph22%29.89 "Hg10 mi
3:00 PM88 °FPassing clouds.14 mph21%29.89 "HgN/A
2:00 PM86 °FPassing clouds.13 mph27%29.89 "HgN/A
1:00 PM82 °FPassing clouds.14 mph32%29.92 "HgN/A
12:00 PM79 °FPassing clouds.8 mph37%29.92 "HgN/A
11:00 AM75 °FPassing clouds.3 mph41%29.92 "HgN/A
10:00 AM70 °FSunny.2 mph50%29.95 "Hg10 mi
9:00 AM64 °FSunny.No wind60%29.95 "Hg10 mi
8:00 AM59 °FSunny.1 mph72%29.92 "Hg10 mi
7:00 AM55 °FSunny.No wind77%29.92 "Hg10 mi
6:00 AM55 °FClear.1 mph77%29.89 "Hg10 mi
5:00 AM57 °FClear.No wind72%29.89 "Hg10 mi
4:00 AM59 °FPassing clouds.3 mph72%29.89 "HgN/A
3:00 AM59 °FClear.7 mph72%29.92 "Hg10 mi
Weather by CustomWeather, © 2014

See weather overviewHow to use our weather pages